SWR3KT LIMC-LSZH

Flight info

Callsign SWR3KT
Flight time 0h 33m
Altitude 30000
Route PEPAG DCT CANNE Z651 KELIP
Aircraft E190/M-SDE3GILORVW/S

Departure

Time 2026-02-17 08:59
Airport Milan Malpensa International Airport (LIMC)

Arrival

Time 2026-02-17 09:33
Airport Zürich Airport (LSZH)
Time Latitude Longitude Altitude Speed Heading
2026-02-17 08:43 45.63084 8.71815 747 ft 0 kts 79°
2026-02-17 08:55 45.63084 8.71811 747 ft 0 kts 79°
2026-02-17 08:55 45.63085 8.71817 751 ft 0 kts 79°
2026-02-17 08:56 45.63085 8.71819 751 ft 1 kts 79°
2026-02-17 08:56 45.63088 8.71859 747 ft 7 kts 95°
2026-02-17 08:56 45.63035 8.71932 749 ft 14 kts 159°
2026-02-17 08:56 45.62912 8.71961 749 ft 21 kts 170°
2026-02-17 08:57 45.62723 8.72013 749 ft 34 kts 169°
2026-02-17 08:57 45.62451 8.72086 749 ft 45 kts 169°
2026-02-17 08:57 45.62132 8.72179 749 ft 46 kts 169°
2026-02-17 08:57 45.61821 8.72262 751 ft 45 kts 169°
2026-02-17 08:58 45.61522 8.72346 752 ft 38 kts 169°
2026-02-17 08:58 45.61404 8.72446 749 ft 19 kts 92°
2026-02-17 08:58 45.61431 8.72645 744 ft 22 kts 77°
2026-02-17 08:59 45.62026 8.72566 747 ft 101 kts 349°
2026-02-17 08:59 45.62926 8.72311 749 ft 160 kts 349°
2026-02-17 08:59 45.64115 8.71987 1254 ft 180 kts 349°
2026-02-17 08:59 45.65355 8.71649 2185 ft 178 kts 348°
2026-02-17 09:00 45.66565 8.71336 2928 ft 180 kts 357°
2026-02-17 09:00 45.67876 8.71855 3062 ft 215 kts 28°
2026-02-17 09:00 45.69116 8.72911 4066 ft 197 kts 27°
2026-02-17 09:00 45.70379 8.73948 4313 ft 226 kts 27°
2026-02-17 09:01 45.71792 8.75122 4287 ft 243 kts 25°
2026-02-17 09:01 45.73329 8.75957 4139 ft 232 kts
2026-02-17 09:01 45.74846 8.76038 4316 ft 204 kts 347°
2026-02-17 09:01 45.76112 8.75345 4905 ft 194 kts 324°
2026-02-17 09:02 45.77092 8.74030 5627 ft 193 kts 308°
2026-02-17 09:02 45.78014 8.72613 6181 ft 204 kts 320°
2026-02-17 09:02 45.79293 8.71405 6246 ft 236 kts 331°
2026-02-17 09:03 45.82134 8.68547 7286 ft 251 kts 328°
2026-02-17 09:03 45.83837 8.67808 7601 ft 270 kts 360°
2026-02-17 09:03 45.85534 8.68701 8533 ft 266 kts 29°
2026-02-17 09:03 45.87028 8.70322 9195 ft 267 kts 30°
2026-02-17 09:04 45.88606 8.71708 9909 ft 265 kts 20°
2026-02-17 09:04 45.90317 8.72600 10548 ft 260 kts
2026-02-17 09:04 45.92110 8.73011 11007 ft 263 kts
2026-02-17 09:04 45.93886 8.73309 11823 ft 258 kts
2026-02-17 09:05 45.95675 8.73531 12447 ft 259 kts 359°
2026-02-17 09:05 45.97484 8.73688 13101 ft 260 kts 358°
2026-02-17 09:05 45.99301 8.73819 13775 ft 262 kts 358°
2026-02-17 09:05 46.01131 8.73929 14419 ft 264 kts 357°
2026-02-17 09:06 46.02958 8.74008 15138 ft 263 kts 356°
2026-02-17 09:06 46.04801 8.74079 15767 ft 267 kts 356°
2026-02-17 09:06 46.06659 8.74142 16479 ft 267 kts 356°
2026-02-17 09:07 46.10411 8.74245 17874 ft 272 kts 356°
2026-02-17 09:07 46.12305 8.74295 18455 ft 273 kts 355°
2026-02-17 09:07 46.14202 8.74344 19048 ft 272 kts 355°
2026-02-17 09:07 46.16097 8.74390 19577 ft 273 kts 355°
2026-02-17 09:08 46.17991 8.74432 20199 ft 272 kts 355°
2026-02-17 09:08 46.19890 8.74476 20618 ft 275 kts 354°
2026-02-17 09:08 46.21783 8.74524 20967 ft 273 kts 354°
2026-02-17 09:08 46.23679 8.74551 20912 ft 274 kts 354°
2026-02-17 09:09 46.25603 8.74605 20795 ft 276 kts 354°
2026-02-17 09:09 46.27522 8.74660 20852 ft 275 kts 354°
2026-02-17 09:09 46.29429 8.74701 20869 ft 274 kts 354°
2026-02-17 09:09 46.31336 8.74742 20875 ft 275 kts 354°
2026-02-17 09:10 46.33254 8.74796 20864 ft 275 kts 354°
2026-02-17 09:10 46.35134 8.74833 20911 ft 274 kts 353°
2026-02-17 09:10 46.37046 8.74864 20793 ft 274 kts 354°
2026-02-17 09:11 46.40886 8.74957 20852 ft 284 kts 354°
2026-02-17 09:11 46.42917 8.75003 20898 ft 299 kts 355°
2026-02-17 09:11 46.45047 8.75052 20957 ft 313 kts 355°
2026-02-17 09:11 46.47272 8.75099 20976 ft 325 kts 355°
2026-02-17 09:12 46.49555 8.75155 20979 ft 330 kts 355°
2026-02-17 09:12 46.51873 8.75209 20917 ft 335 kts 356°
2026-02-17 09:12 46.54210 8.75301 20932 ft 337 kts 356°
2026-02-17 09:12 46.56556 8.75409 20884 ft 340 kts 358°
2026-02-17 09:13 46.58905 8.75900 20690 ft 344 kts
2026-02-17 09:13 46.61229 8.76958 20333 ft 356 kts 14°
2026-02-17 09:13 46.63470 8.78581 19882 ft 363 kts 22°
2026-02-17 09:13 46.65599 8.80630 19331 ft 370 kts 28°
2026-02-17 09:14 46.67605 8.83000 18832 ft 374 kts 33°
2026-02-17 09:14 46.69533 8.85543 18357 ft 372 kts 35°
2026-02-17 09:14 46.71368 8.88126 17896 ft 370 kts 37°
2026-02-17 09:15 46.75640 8.91186 17305 ft 336 kts 355°
2026-02-17 09:15 46.77855 8.90407 17090 ft 325 kts 330°
2026-02-17 09:15 46.79659 8.88451 16872 ft 323 kts 318°
2026-02-17 09:15 46.81287 8.86171 16609 ft 324 kts 316°
2026-02-17 09:16 46.82887 8.83870 16318 ft 322 kts 317°
2026-02-17 09:16 46.84572 8.81697 16107 ft 325 kts 321°
2026-02-17 09:16 46.86431 8.79782 15922 ft 327 kts 326°
2026-02-17 09:16 46.88431 8.78205 15651 ft 325 kts 333°
2026-02-17 09:17 46.90483 8.76990 15401 ft 311 kts 338°
2026-02-17 09:17 46.92490 8.76106 15162 ft 299 kts 342°
2026-02-17 09:17 46.94509 8.75569 14868 ft 290 kts 347°
2026-02-17 09:17 46.96473 8.75185 14655 ft 280 kts 347°
2026-02-17 09:18 46.98385 8.74865 14375 ft 273 kts 350°
2026-02-17 09:18 47.00207 8.74410 14104 ft 261 kts 338°
2026-02-17 09:18 47.01842 8.73347 13895 ft 253 kts 327°
2026-02-17 09:19 47.04844 8.70563 13580 ft 259 kts 325°
2026-02-17 09:19 47.06362 8.69148 13284 ft 262 kts 325°
2026-02-17 09:19 47.07921 8.67720 13037 ft 265 kts 325°
2026-02-17 09:19 47.09493 8.66294 12754 ft 265 kts 326°
2026-02-17 09:20 47.11044 8.64885 12504 ft 265 kts 325°
2026-02-17 09:20 47.12609 8.63461 12268 ft 264 kts 325°
2026-02-17 09:20 47.14168 8.62039 12008 ft 262 kts 325°
2026-02-17 09:20 47.15715 8.60632 11735 ft 261 kts 325°
2026-02-17 09:21 47.17259 8.59234 11483 ft 260 kts 325°
2026-02-17 09:21 47.18798 8.57839 11231 ft 259 kts 325°
2026-02-17 09:21 47.20332 8.56453 10991 ft 259 kts 325°
2026-02-17 09:21 47.21863 8.55069 10750 ft 258 kts 325°
2026-02-17 09:22 47.23390 8.53689 10498 ft 257 kts 325°
2026-02-17 09:22 47.24910 8.52313 10244 ft 256 kts 325°
2026-02-17 09:22 47.26428 8.50942 9998 ft 256 kts 325°
2026-02-17 09:23 47.29421 8.48235 9976 ft 254 kts 326°
2026-02-17 09:23 47.30937 8.46865 9839 ft 256 kts 325°
2026-02-17 09:23 47.32460 8.45495 9697 ft 256 kts 325°
2026-02-17 09:23 47.33985 8.44121 9428 ft 257 kts 325°
2026-02-17 09:24 47.35483 8.42772 9128 ft 255 kts 325°
2026-02-17 09:24 47.36994 8.41416 8843 ft 254 kts 325°
2026-02-17 09:24 47.38502 8.40070 8576 ft 252 kts 325°
2026-02-17 09:24 47.40001 8.38733 8318 ft 251 kts 325°
2026-02-17 09:25 47.41491 8.37406 8050 ft 250 kts 325°
2026-02-17 09:25 47.42978 8.36084 7829 ft 248 kts 325°
2026-02-17 09:25 47.44457 8.34771 7625 ft 248 kts 325°
2026-02-17 09:25 47.45936 8.33460 7410 ft 248 kts 325°
2026-02-17 09:26 47.47414 8.32146 7214 ft 248 kts 325°
2026-02-17 09:26 47.48888 8.30833 7023 ft 247 kts 325°
2026-02-17 09:26 47.50362 8.29519 6857 ft 247 kts 325°
2026-02-17 09:27 47.53296 8.26890 6399 ft 247 kts 325°
2026-02-17 09:27 47.54813 8.25769 6032 ft 250 kts 341°
2026-02-17 09:27 47.56546 8.25822 5826 ft 255 kts 12°
2026-02-17 09:27 47.58013 8.27234 5724 ft 252 kts 41°
2026-02-17 09:28 47.59058 8.29222 5522 ft 238 kts 47°
2026-02-17 09:28 47.59748 8.31432 5241 ft 239 kts 77°
2026-02-17 09:28 47.59705 8.33871 4996 ft 235 kts 94°
2026-02-17 09:28 47.59541 8.36245 4725 ft 230 kts 99°
2026-02-17 09:29 47.58998 8.38461 4394 ft 226 kts 121°
2026-02-17 09:29 47.58014 8.40157 4054 ft 210 kts 144°
2026-02-17 09:29 47.56938 8.41504 3858 ft 195 kts 141°
2026-02-17 09:29 47.56014 8.42895 3606 ft 183 kts 140°
2026-02-17 09:30 47.54258 8.45278 3137 ft 160 kts 143°
2026-02-17 09:30 47.53467 8.46370 2925 ft 153 kts 145°
2026-02-17 09:31 47.51834 8.48628 2500 ft 162 kts 143°
2026-02-17 09:31 47.51019 8.49747 2238 ft 157 kts 143°
2026-02-17 09:31 47.50241 8.50807 2016 ft 146 kts 143°
2026-02-17 09:31 47.49502 8.51827 1808 ft 145 kts 139°
2026-02-17 09:32 47.48765 8.52846 1617 ft 145 kts 140°
2026-02-17 09:32 47.48032 8.53856 1423 ft 141 kts 141°
2026-02-17 09:32 47.47378 8.54742 1390 ft 118 kts 136°
2026-02-17 09:32 47.46873 8.55433 1386 ft 67 kts 137°
2026-02-17 09:33 47.46622 8.55766 1394 ft 44 kts 141°
2026-02-17 09:33 47.46370 8.55960 1400 ft 40 kts 170°
2026-02-17 09:33 47.46111 8.55991 1406 ft 36 kts 184°
2026-02-17 09:33 47.45875 8.55922 1413 ft 34 kts 204°
2026-02-17 09:34 47.45651 8.55852 1413 ft 32 kts 187°
2026-02-17 09:34 47.45519 8.55867 1407 ft 11 kts 160°
2026-02-17 09:34 47.45450 8.55877 1408 ft 7 kts 186°
2026-02-17 09:35 47.45420 8.55872 1410 ft 0 kts 186°